Flag for Russia Weather past 2 weeks in Kaliningrad, Russia

Now
63 °F

Broken clouds.


Feels Like: 63 °F
Forecast: 51 / 71 °F
Wind: 10 mph from Northwest

Location: Kaliningrad/Khrabrovo Airport

Current Time: Jun 30, 2015 at 7:41:39 PM

Latest Report: Jun 30, 2015 at 7:00 PM


Visibility: N/A

Pressure: 30.12 "Hg

Humidity: 73%

Dew point: 54 °F

Location of KaliningradLocation

Historic Weather in Kaliningrad — Graph

°F

Kaliningrad temperature yesterday

Maximum temperature yesterday: 66 °F (at 11:00 AM)
Minimum temperature yesterday: 50 °F (at 4:00 AM)
Average temperature yesterday: 60 °F

Past Weeks' High & Low Weather Summary

 TemperatureHumidityPressure
High72 °F (Jun 30, 11:00 AM)100% (Jun 16, 3:30 AM)30.12 "Hg (Jun 16, 3:30 AM)
Low43 °F (Jun 16, 3:00 AM)28% (Jun 27, 2:00 PM)29.59 "Hg (Jun 23, 5:30 AM)
Average58 °F78%29.95 "Hg
* Reported Jun 15 6:00 PM — Jun 30 6:00 PM, Kaliningrad, Weather by CustomWeather, © 2015

Note: Actual official high and low records may vary slightly from our data, if they occured in-between our weather recording intervals... More about our weather records

Advertising

Kaliningrad weather history for previous 24 hours

 ConditionsComfort  
Time TempWeatherWind HumidityBarometerVisibility
6:00 PM
Tue, Jun 30
63 °FBroken clouds.10 mph77%30.12 "HgN/A
5:00 PM64 °FBroken clouds.10 mph73%30.12 "HgN/A
4:30 PM66 °FPartly sunny.10 mph68%30.09 "HgN/A
4:00 PM66 °FScattered clouds.13 mph73%30.09 "HgN/A
3:30 PM66 °FScattered clouds.13 mph73%30.09 "HgN/A
3:00 PM68 °FPassing clouds.10 mph69%30.09 "HgN/A
2:00 PM68 °FScattered clouds.13 mph69%30.09 "HgN/A
1:30 PM70 °FBroken clouds.10 mph69%30.09 "HgN/A
1:00 PM68 °FPartly sunny.8 mph73%30.09 "HgN/A
12:30 PM72 °FBroken clouds.6 mph65%30.09 "HgN/A
12:00 PM72 °FBroken clouds.8 mph61%30.09 "HgN/A
11:30 AM72 °FBroken clouds.8 mph61%30.09 "HgN/A
11:00 AM72 °FBroken clouds.8 mph61%30.09 "HgN/A
10:30 AM70 °FBroken clouds.6 mph60%30.09 "HgN/A
10:00 AM70 °FPartly sunny.6 mph60%30.09 "HgN/A
9:30 AM68 °FPartly sunny.6 mph64%30.09 "HgN/A
9:00 AM68 °FBroken clouds.8 mph69%30.09 "HgN/A
8:30 AM66 °FBroken clouds.6 mph73%30.09 "HgN/A
8:00 AM64 °FPartly sunny.6 mph78%30.09 "HgN/A
7:30 AM64 °FPartly sunny.6 mph73%30.09 "HgN/A
7:00 AM63 °FPartly sunny.6 mph77%30.09 "HgN/A
6:30 AM61 °FPassing clouds.3 mph77%30.09 "HgN/A
6:00 AM59 °FPassing clouds.No wind82%30.09 "HgN/A
5:30 AM55 °FPartly cloudy.1 mph94%30.09 "HgN/A
5:00 AM54 °FFog.1 mph94%30.09 "HgN/A
4:30 AM54 °FPassing clouds.1 mph94%30.09 "HgN/A
4:00 AM55 °FPassing clouds.1 mph94%30.09 "HgN/A
3:00 AM55 °FPassing clouds.1 mph94%30.09 "HgN/A
2:00 AM55 °FPassing clouds.1 mph94%30.09 "HgN/A
1:00 AM52 °FClear.3 mph94%30.12 "Hg10 mi
12:30 AM54 °FClear.3 mph94%30.12 "Hg10 mi
12:00 AM54 °FClear.3 mph94%30.12 "Hg10 mi
11:30 PM
Mon, Jun 29
54 °FFog.1 mph94%30.12 "HgN/A
11:00 PM54 °FFog.1 mph100%30.12 "HgN/A
10:30 PM54 °FFog.1 mph94%30.12 "HgN/A
10:00 PM57 °FClear.1 mph88%30.12 "HgN/A
9:00 PM61 °FPartly sunny.1 mph83%30.12 "HgN/A
8:00 PM63 °FPartly sunny.6 mph73%30.12 "HgN/A
7:30 PM63 °FPartly sunny.6 mph73%30.12 "HgN/A
7:00 PM63 °FPartly sunny.6 mph77%30.12 "HgN/A
Weather by CustomWeather, © 2015

See weather overviewHow to use our weather pages